This is the latest recevied weather packets stored in our database for station/object KD4EG. If no packets are shown the sender has not sent any weather packets the latest 10 day(s).
| Time | Temp. | Humidity | Pressure | Rain* | Wind** | Luminosity | Snow |
|---|---|---|---|---|---|---|---|
| 1777186565 | 13.33° C | 99% | 1013 hPa | 0 mm | - | 0 W/m² | - |
| 1777186260 | 12.78° C | 99% | 1013.2 hPa | 0 mm | - | 0 W/m² | - |
| 1777185955 | 12.78° C | 99% | 1013.2 hPa | 0 mm | - | 0 W/m² | - |
| 1777185651 | 12.78° C | 99% | 1013.3 hPa | 0 mm | - | 0 W/m² | - |
| 1777185347 | 12.78° C | 99% | 1012.9 hPa | 0 mm | - | 0 W/m² | - |
| 1777185044 | 12.78° C | 99% | 1013 hPa | 0 mm | - | 0 W/m² | - |
| 1777184742 | 13.33° C | 99% | 1013.2 hPa | 0 mm | - | 0 W/m² | - |
| 1777184438 | 13.33° C | 99% | 1012.7 hPa | 0 mm | - | 0 W/m² | - |
| 1777184133 | 13.33° C | 99% | 1012.9 hPa | 0 mm | - | 0 W/m² | - |
| 1777183829 | 13.33° C | 99% | 1013.2 hPa | 0 mm | - | 0 W/m² | - |
| 1777183526 | 13.89° C | 99% | 1013.2 hPa | 0 mm | - | 0 W/m² | - |
| 1777183226 | 13.89° C | 99% | 1013 hPa | 0 mm | - | 0 W/m² | - |
| 1777182922 | 13.89° C | 99% | 1013.2 hPa | 0 mm | - | 0 W/m² | - |
| 1777182618 | 14.44° C | 99% | 1013.4 hPa | 0 mm | - | 0 W/m² | - |
| 1777182314 | 14.44° C | 99% | 1013 hPa | 0 mm | - | 0 W/m² | - |
| 1777182011 | 13.89° C | 99% | 1013.2 hPa | 0 mm | - | 0 W/m² | - |
| 1777181706 | 13.89° C | 99% | 1013.4 hPa | 0 mm | - | 0 W/m² | - |
| 1777181402 | 14.44° C | 99% | 1013.3 hPa | 0 mm | - | 0 W/m² | - |
| 1777181102 | 14.44° C | 99% | 1013.2 hPa | 0 mm | - | 0 W/m² | - |
| 1777180796 | 14.44° C | 99% | 1013.5 hPa | 0 mm | - | 0 W/m² | - |
| 1777180494 | 13.89° C | 99% | 1013.4 hPa | 0 mm | - | 0 W/m² | - |
| 1777180190 | 13.89° C | 99% | 1013.2 hPa | 0 mm | - | 0 W/m² | - |
| 1777179885 | 13.89° C | 99% | 1012.9 hPa | 0 mm | - | 0 W/m² | - |
| 1777179582 | 14.44° C | 99% | 1013 hPa | 0 mm | - | 0 W/m² | - |
| 1777179280 | 14.44° C | 99% | 1013.2 hPa | 0 mm | - | 0 W/m² | - |
* Rain latest hour (hover to see other rain measurements)
** Current wind speed in m/s (hover to see current wind gust speed)